This is the latest recevied weather packets stored in our database for station/object WZ8H. If no packets are shown the sender has not sent any weather packets the latest 1 day(s).
| Time | Temp. | Humidity | Pressure | Rain* | Wind** | Luminosity | Snow |
|---|---|---|---|---|---|---|---|
| 1777969460 | 17.22° C | 77% | 1001.4 hPa | 0 mm | 1.34 m/s, 273° | 0 W/m² | - |
| 1777969162 | 17.22° C | 78% | 1001.4 hPa | 0 mm | 1.34 m/s, 251° | 0 W/m² | - |
| 1777968859 | 17.22° C | 78% | 1001.3 hPa | 0 mm | 1.34 m/s, 212° | 0 W/m² | - |
| 1777968537 | 17.22° C | 78% | 1001.2 hPa | 0 mm | 1.34 m/s, 224° | 0 W/m² | - |
| 1777968233 | 17.22° C | 78% | 1001.2 hPa | 0 mm | 0.89 m/s, 198° | 0 W/m² | - |
| 1777967931 | 17.22° C | 78% | 1001 hPa | 0 mm | 0.89 m/s, 225° | 0 W/m² | - |
| 1777967629 | 16.67° C | 79% | 1000.9 hPa | 0 mm | 0.89 m/s, 273° | 0 W/m² | - |
| 1777967311 | 16.67° C | 80% | 1000.9 hPa | 0 mm | 0.89 m/s, 252° | 0 W/m² | - |
| 1777966995 | 16.67° C | 80% | 1001 hPa | 0 mm | 0.89 m/s, 252° | 0 W/m² | - |
| 1777966696 | 17.22° C | 79% | 1000.9 hPa | 0 mm | 0.89 m/s, 148° | 0 W/m² | - |
| 1777966393 | 17.22° C | 78% | 1001 hPa | 0 mm | 0.89 m/s, 231° | 0 W/m² | - |
| 1777966093 | 17.78° C | 76% | 1000.9 hPa | 0 mm | 0.89 m/s, 202° | 0 W/m² | - |
| 1777965783 | 17.78° C | 76% | 1000.9 hPa | 0 mm | 1.34 m/s, 212° | 0 W/m² | - |
| 1777965489 | 17.78° C | 75% | 1001 hPa | 0 mm | 0.89 m/s, 265° | 0 W/m² | - |
| 1777965167 | 17.78° C | 76% | 1001 hPa | 0 mm | 0.89 m/s, 267° | 0 W/m² | - |
| 1777964872 | 17.78° C | 76% | 1001.2 hPa | 0 mm | 0.89 m/s, 255° | 0 W/m² | - |
| 1777964566 | 17.78° C | 76% | 1001.1 hPa | 0 mm | 0.89 m/s, 261° | 0 W/m² | - |
| 1777964266 | 17.78° C | 77% | 1001.4 hPa | 0 mm | 0.89 m/s, 247° | 0 W/m² | - |
| 1777963950 | 17.78° C | 77% | 1001.3 hPa | 0 mm | 0.89 m/s, 254° | 0 W/m² | - |
| 1777963633 | 17.78° C | 76% | 1001.5 hPa | 0 mm | 0.89 m/s, 257° | 0 W/m² | - |
| 1777963332 | 18.33° C | 76% | 1001.5 hPa | 0 mm | 1.34 m/s, 241° | 0 W/m² | - |
| 1777963035 | 18.33° C | 74% | 1001.6 hPa | 0 mm | 0.89 m/s, 236° | 0 W/m² | - |
| 1777962708 | 18.89° C | 72% | 1001.6 hPa | 0 mm | 1.34 m/s, 288° | 0 W/m² | - |
| 1777962383 | 19.44° C | 70% | 1001.7 hPa | 0 mm | 1.79 m/s, 340° | 0 W/m² | - |
| 1777962069 | 19.44° C | 69% | 1001.7 hPa | 0 mm | 1.79 m/s, 261° | 0 W/m² | - |
* Rain latest hour (hover to see other rain measurements)
** Current wind speed in m/s (hover to see current wind gust speed)